User: anonymous   Login
Location: Newark
(45.7425°N, 0.7617°W)
Time: 01:49:38
(UTC+00:00)
Language:

ZACube-1 - Orbit

View from above orbital plane
View from above orbital plane
View from above satellite
View from above satellite

Ground track
Ground track

The orbit data is extracted from the following two-line orbital elements,

1 39417U 13066B   20093.09939286 +.00000187 +00000-0 +29703-4 0  9991
2 39417 097.5649 095.3752 0059215 166.8082 193.4696 14.81242586343739
Epoch (UTC): 02 April 2020 02:23:07
Eccentricity: 0.0059215
inclination: 97.5649°
perigee height: 584 km
apogee height: 667 km
right ascension of ascending node: 95.3752°
argument of perigee: 166.8082°
revolutions per day: 14.81242586
mean anomaly at epoch: 193.4696°
orbit number at epoch: 34373

The dashed part of the orbit path shows where the satellite is in the earth's shadow,  

DLR